Regional Weather Roundup
Issued by NWS

Home | Current Version | Previous Version | Text Only | Print | Product List | Glossary Off
Versions: 1 2 3 4 5 6 7 8 9 10 11 12 13 14 15 16 17 18 19 20 21 22 23 24 25 26 27 28 29 30 31 32 33 34 35 36 37 38 39 40 41 42 43 44 45 46 47 48 49 50

000
ASUS43 KMKX 281700
RWRWI

WISCONSIN REGIONAL WEATHER ROUNDUP
NATIONAL WEATHER SERVICE MILWAUKEE/SULLIVAN WI
1200 PM CDT THU AUG 28 2014

NOTE: "FAIR" INDICATES FEW OR NO CLOUDS BELOW 12,000 FEET WITH NO
SIGNIFICANT WEATHER AND/OR OBSTRUCTIONS TO VISIBILITY.

WIZ001-002-006>008-014>016-023>028-281800-
NORTHWEST WISCONSIN

CITY           SKY/WX    TMP DP  RH WIND       PRES   REMARKS
SUPERIOR ARPT  MOSUNNY   68  57  67 NE6       30.09F
ASHLAND        SUNNY     72  53  51 VRB6      30.12F
HAYWARD        MOSUNNY   69  53  56 S9        30.12F
SIREN          PTSUNNY   70  55  59 SE7       30.10F
RICE LAKE      PTSUNNY   69  55  60 E5        30.13F
LADYSMITH      MOSUNNY   71  55  56 S5        30.14F
EAU CLAIRE     NOT AVBL
MENOMONIE      PTSUNNY   69  57  65 SE7       30.10F
NEW RICHMOND   PTSUNNY   71  58  63 SE10      30.09F
OSCEOLA        PTSUNNY   71  59  67 SE10      30.11F
$$

WIZ003>005-009-010-017-018-281800-
NORTH CENTRAL WISCONSIN

CITY           SKY/WX    TMP DP  RH WIND       PRES   REMARKS
WOODRUFF       SUNNY     69  48  46 E6        30.15F
RHINELANDER    SUNNY     68  48  48 E7        30.16F
EAGLE RIVER    SUNNY     67  45  43 SE5       30.15F
LAND O LAKES   SUNNY     68  46  45 SE6       30.16F
PHILLIPS       PTSUNNY   68  51  53 SE6       30.13F
TOMAHAWK       MOSUNNY   67  52  57 SE5       30.15F
MEDFORD        PTSUNNY   65  56  71 S7        30.15S
MERRILL        PTSUNNY   63  56  80 SE7       30.16F
$$

WIZ029-030-035-036-043>047-281800-
CENTRAL WISCONSIN

CITY           SKY/WX    TMP DP  RH WIND       PRES   REMARKS
WAUSAU         CLOUDY    61  58  90 SE6       30.15S
MOSINEE        CLOUDY    61  61 100 CALM      30.17S
MARSHFIELD     PTSUNNY   67  60  78 VRB5      30.14F
STEVENS POINT  CLOUDY    65  59  79 CALM      30.15F
WAUPACA        CLOUDY    71  61  70 SE6       30.16S
WAUTOMA        NOT AVBL
WISC RAPIDS    PTSUNNY   70  61  73 CALM      30.14F
CAMP DOUGLAS   NOT AVBL
$$

WIZ011>013-019>022-031-037>040-048>050-281800-
NORTHEAST WISCONSIN

CITY           SKY/WX    TMP DP  RH WIND       PRES   REMARKS
ANTIGO         CLOUDY    63  56  77 S3        30.17S
STURGEON BAY   CLOUDY    63  54  72 S8        30.18S
GREEN BAY      CLOUDY    68  59  73 S5        30.15F
MANITOWOC      NOT AVBL
APPLETON       CLOUDY    68  57  68 SE6       30.16S
CLINTONVILLE   CLOUDY    66  59  77 S5        30.15F
OSHKOSH        CLOUDY    70  60  70 SE8       30.15S
$$

WIZ032>034-041-042-053>061-281800-
SOUTHWEST WISCONSIN

CITY           SKY/WX    TMP DP  RH WIND       PRES   REMARKS
LA CROSSE      CLOUDY    74  62  66 SE8       30.08F
SPARTA         CLOUDY    73  58  60 S5        30.11F
VIROQUA        PTSUNNY   70  62  76 S7        30.12S
BOSCOBEL       CLOUDY    74  61  63 VRB3      30.10F
PRAIRIE DU CHI CLOUDY    70  59  67 SE5       30.09F
PLATTEVILLE    FAIR      72  62  71 S10       30.12S
$$

WIZ056-057-062-063-064-067-068-281800-
SOUTH CENTRAL WISCONSIN

CITY           SKY/WX    TMP DP  RH WIND       PRES   REMARKS
BARABOO/DELLS  PTSUNNY   74  57  56 S9        30.13F
LONE ROCK      NOT AVBL
WATERTOWN      SUNNY     72  60  64 E8        30.14S
MADISON        PTSUNNY   74  59  59 SE9       30.12F
MIDDLETON      FAIR      74  58  58 SE7       30.13F
MONROE         CLOUDY    70  61  73 SE7       30.12F
JANESVILLE     MOSUNNY   75  57  53 SE8       30.12F
$$

WIZ051-052-058>065-066-070>072-281800-
SOUTHEAST WISCONSIN

CITY           SKY/WX    TMP DP  RH WIND       PRES   REMARKS
MILWAUKEE      MOSUNNY   69  54  58 SE12      30.15F
WAUKESHA       MOSUNNY   70  54  56 E9        30.16F
MILWAUKEE/TIMM NOT AVBL
RACINE         SUNNY     71  55  56 E12       30.17S
BURLINGTON     SUNNY     70  55  59 E12       30.15S
KENOSHA        SUNNY     71  53  52 SE12      30.15F
FOND DU LAC    CLOUDY    70  59  68 MISG      30.15F
SHEBOYGAN      MOSUNNY   69  54  58 SE10      30.17S
WEST BEND      SUNNY     70  52  52 SE9       30.16F
JUNEAU         MOSUNNY   70  58  66 SE6       30.15F
$$

LSZ147-162-281800-
LAKE SUPERIOR

STATION/POSITION TIME  TEMP    WIND        PRES    WAVE
                       AIR SEA DIR/SP/G            HT/PER
                 (UTC) (F)     (DEG/KT/KT) (MB)    (FT/S)
W MID LAKE BUOY  1550   57 56  170/  4/  4 1020.6S   0
DEVILS ISLAND    1600   63     250/  3/  3 1020.2F
PORT WING        1600   62     330/  5/  6 1020.0
SAXON HARBOR     1640   64      40/  4/  4 1020.3F
$$

LMZ867-665-643>646-281800-
LAKE MICHIGAN

STATION/POSITION TIME  TEMP    WIND        PRES    WAVE
                       AIR SEA DIR/SP/G            HT/PER
                 (UTC) (F)     (DEG/KT/KT) (MB)    (FT/S)
N MID LAKE BUOY  1550   62 65  170/  4/  6 1022.4R   0
NORTHPORT PIER   1600   64     140/  9/ 12 1022.0R
SISTER BAY       1611   66     140/  6/  8   N/A
KEWAUNEE LAKESHO 1600   64     160/ 10/ 12 1020.8S
SHEBOYGAN LAKESH 1600   65 69  140/ 14/ 15 1021.9R
ATWATER BUOY     1600   67     120/ 12/ 14 1022.3R
MILWAUKEE LAKESH 1600   67     120/ 10/ 12   N/A
S MID LAKE BUOY  1550   65 69   90/ 12/ 14 1020.9F   2/ 5
KENOSHA   LAKESH 1600   68     120/ 10/ 12 1020.7S
$$

TC  - TEMPERATURE IN CELSIUS
VSB - VISIBILITY IN STATUTE MILES
WCI - WIND CHILL INDEX
HX  - HEAT INDEX




USA.gov is the U.S. government's official web portal to all federal, state and local government web resources and services.